Regional Weather Roundup
Issued by NWS Goodland, KS

Home | Current Version | Previous Version | Graphics & Text | Print | Product List | Glossary On
Versions: 1 2 3 4 5 6 7 8 9 10 11 12 13 14 15 16 17 18 19 20 21 22 23 24 25 26 27 28 29 30 31 32 33 34 35 36 37 38 39 40 41 42 43 44 45 46 47 48 49 50
000
ASUS43 KGLD 221559
RWRGLD

GOODLAND FORECAST AREA HOURLY WEATHER ROUNDUP
NATIONAL WEATHER SERVICE GOODLAND KS
1000 AM MDT TUE MAY 22 2018

...OFFICIAL OBSERVATIONS...

CITY           SKY/WX    TMP DP  RH WIND       PRES   REMARKS
GOODLAND KS    CLOUDY    73  53  49 S18       29.97F
HILL CITY KS   PTSUNNY   77  61  57 SW10G20   29.98F
IMPERIAL NEB   CLOUDY    71  52  50 S7        29.97S
MCCOOK NEB     CLOUDY    71  59  65 CALM      29.96F
AKRON CO       CLOUDY    67  49  52 S15       29.97F
BURLINGTON CO  PTSUNNY   72  51  47 SE17G26   29.97F
LIMON CO       CLOUDY    59  46  62 S9        30.01F
$$

...UNOFFICIAL OBSERVATIONS...

CITY           SKY/WX    TMP DP  RH WIND       PRES   REMARKS
NORTON KS      SUNNY     75  63  64 S5        29.97
SHARON SPRINGS   N/A     75  55  49 MISG        N/A
KIT CARSON CO    N/A     68  51  54 MISG        N/A
YUMA CO        FAIR      64  41  42 S7        29.96F
$$



USA.gov is the U.S. government's official web portal to all federal, state and local government web resources and services.